Time,TemperatureF,DewpointF,PressureIn,WindDirection,WindDirectionDegrees,WindSpeedMPH,WindSpeedGustMPH,Humidity,HourlyPrecipIn,Conditions,Clouds,dailyrainin,SolarRadiationWatts/m^2,SoftwareType,DateUTC
2015-08-30 00:03:00,35.0,34.0,-100.00,NW,314,7.0,13.0,94,-99.99,,,-99.99,0.000000,,2015-08-30 08:03:00,
2015-08-30 00:33:00,35.0,34.0,-100.00,NW,313,9.0,14.0,95,-99.99,,,-99.99,0.000000,,2015-08-30 08:33:00,
2015-08-30 00:43:00,35.0,34.0,-100.00,NW,306,7.0,12.0,95,-99.99,,,-99.99,0.000000,,2015-08-30 08:43:00,
2015-08-30 00:53:00,35.0,34.0,-100.00,WNW,302,7.0,13.0,95,-99.99,,,-99.99,0.000000,,2015-08-30 08:53:00,
2015-08-30 01:03:00,35.0,34.0,-100.00,NW,309,8.0,13.0,96,-99.99,,,-99.99,0.000000,,2015-08-30 09:03:00,
2015-08-30 01:12:00,35.0,34.0,-100.00,NW,307,8.0,16.0,97,-99.99,,,-99.99,0.000000,,2015-08-30 09:12:00,
2015-08-30 01:43:00,34.0,33.0,-100.00,NW,312,8.0,14.0,97,-99.99,,,-99.99,0.000000,,2015-08-30 09:43:00,
2015-08-30 02:43:00,34.0,33.0,-100.00,NW,325,10.0,13.0,97,-99.99,,,-99.99,0.000000,,2015-08-30 10:43:00,
2015-08-30 03:03:00,34.0,33.0,-100.00,NW,318,9.0,13.0,97,-99.99,,,-99.99,0.000000,,2015-08-30 11:03:00,
2015-08-30 03:43:00,33.0,33.0,-100.00,NW,305,9.0,18.0,97,-99.99,,,-99.99,0.000000,,2015-08-30 11:43:00,
2015-08-30 04:12:00,33.0,32.0,-100.00,NW,307,10.0,18.0,97,-99.99,,,-99.99,0.000000,,2015-08-30 12:12:00,
2015-08-30 04:43:00,33.0,32.0,-100.00,WNW,300,8.0,17.0,98,-99.99,,,-99.99,0.000000,,2015-08-30 12:43:00,
2015-08-30 04:53:00,33.0,33.0,-100.00,WNW,291,8.0,15.0,98,-99.99,,,-99.99,0.000000,,2015-08-30 12:53:00,
2015-08-30 05:35:00,33.0,33.0,-100.00,NW,304,9.0,17.0,97,-99.99,,,-99.99,0.000000,,2015-08-30 13:35:00,
2015-08-30 05:43:00,33.0,33.0,-100.00,NW,304,9.0,17.0,97,-99.99,,,-99.99,0.000000,,2015-08-30 13:43:00,
2015-08-30 06:03:00,33.0,32.0,-100.00,WNW,293,8.0,16.0,95,-99.99,,,-99.99,0.000000,,2015-08-30 14:03:00,
2015-08-30 06:12:00,33.0,32.0,-100.00,WNW,301,6.0,10.0,96,-99.99,,,-99.99,0.000000,,2015-08-30 14:12:00,
2015-08-30 06:23:00,33.0,32.0,-100.00,WNW,301,6.0,10.0,96,-99.99,,,-99.99,0.000000,,2015-08-30 14:23:00,
2015-08-30 06:33:00,32.0,32.0,-100.00,WNW,303,6.0,9.0,97,-99.99,,,-99.99,0.300000,,2015-08-30 14:33:00,
2015-08-30 06:43:00,32.0,32.0,-100.00,WNW,284,6.0,10.0,97,-99.99,,,-99.99,0.800000,,2015-08-30 14:43:00,
2015-08-30 07:03:00,32.0,32.0,-100.00,WNW,292,6.0,11.0,98,-99.99,,,-99.99,2.700000,,2015-08-30 15:03:00,
2015-08-30 07:12:00,32.0,32.0,-100.00,WNW,292,6.0,11.0,98,-99.99,,,-99.99,2.700000,,2015-08-30 15:12:00,
2015-08-30 07:33:00,32.0,31.0,-100.00,WNW,296,9.0,15.0,97,-99.99,,,-99.99,10.000000,,2015-08-30 15:33:00,
2015-08-30 07:43:00,32.0,31.0,-100.00,WNW,300,9.0,15.0,97,-99.99,,,-99.99,11.700000,,2015-08-30 15:43:00,
2015-08-30 08:33:00,31.0,31.0,-100.00,WNW,299,8.0,14.0,97,-99.99,,,-99.99,31.900000,,2015-08-30 16:33:00,